www.pogodaiklimat.ru

Погода и климат >> Архив погоды >> Великобритания >> Херстмонсо


ПОГОДА в Херстмонсо

  • Прогноз погоды в Херстмонсо
  • Монитор погоды в Херстмонсо

АРХИВ ПОГОДЫ в Херстмонсо

Время (UTC), дата Ветер
(напр.,м/с)
 
Видим.   Явления Облачность Т
(С)
Тd
(С)
f
(%)
Тe
(С)
Тes
(С)
Комфортность P
(гПа)
Po
(гПа)
Тmin
(С)
Tmax
(С)
R
(мм)
R24
(мм)
S
(см)
10 14.08 ЮЗ 4 12 км сильн. дождь н/о +14.9 +13.5 91 +14 +14 1015.4 1009.2
11 14.08 ЮЗ 4 30 км в посл. час дождь н/о +14.9 +12.6 86 +14 +14 1015.3 1009.1
12 14.08 Ю 5 19 км в посл. час дождь н/о +15.8 +14.3 91 +15 +15 1014.5 1008.3 5
13 14.08 ЮЗ 6 30 км н/о +17.4 +14.8 85 +17 +17 1013.7 1007.5
14 14.08 Ю 5 4100 м ливневой дождь н/о +16.3 +15.3 94 +15 +15 1013.0 1006.9
15 14.08 ЮЗ 4 3400 м дождь н/о +15.5 +14.9 96 +14 +14 1012.4 1006.2
16 14.08 ЮЗ 5 3600 м дождь н/о +15.4 +15.0 97 +14 +14 1011.6 1005.4
17 14.08 ЮЗ 5 4600 м морось с дождем н/о +15.5 +15.1 97 +14 +14 1010.7 1004.5
18 14.08 ЮЗ 5 3500 м дождь н/о +15.9 +15.7 99 +15 +15 1009.9 1003.8 +17.8 10
19 14.08 ЮЗ 5 3900 м морось н/о +16.4 +16.3 99 +15 +15 1009.4 1003.3
20 14.08 ЮЗ 4 5000 м слаб. морось н/о +17.0 +16.9 99 +17 +17 1009.4 1003.2
21 14.08 ЮЗ 4 3700 м слаб. морось н/о +17.0 +16.9 99 +17 +17 1009.2 1003.1
22 14.08 ЮЗ 3 8000 м слаб. морось н/о +16.8 +16.6 99 +17 +17 1009.1 1002.9
23 14.08 З 3 8000 м в посл. час дождь н/о +16.9 +16.6 98 +17 +17 1009.0 1002.9
00 15.08 З 3 11 км н/о +16.8 +16.4 97 +17 +17 1009.2 1003.1 1
01 15.08 З 3 12 км н/о +16.9 +16.3 96 +17 +17 1008.9 1002.7
02 15.08 З 3 17 км в посл. час дождь н/о +16.5 +15.6 94 +16 +16 1008.8 1002.7
03 15.08 З 3 16 км н/о +15.9 +15.0 94 +15 +15 1009.1 1002.9
04 15.08 З 4 17 км н/о +15.5 +14.4 93 +15 +15 1009.1 1003.0
05 15.08 З 2 15 км н/о +14.3 +13.5 95 +14 +14 1009.8 1003.6
06 15.08 З 3 16 км н/о +15.4 +14.4 94 +15 +15 1010.5 1004.3 +14.2 1
07 15.08 З 4 17 км н/о +16.2 +14.3 89 +16 +16 1010.9 1004.7
08 15.08 З 4 27 км н/о +17.1 +14.2 83 +17 +17 1011.4 1005.2
09 15.08 З 4 29 км н/о +18.3 +13.3 73 +18 +18 1011.7 1005.5
10 15.08 З 4 50 км н/о +19.0 +13.2 69 +20 +20 1011.9 1005.8
11 15.08 З 5 40 км н/о +19.4 +11.9 62 +20 +20 1012.1 1006.0
12 15.08 З 4 50 км н/о +20.6 +11.8 57 +23 +23 комфорт 1012.7 1006.6
13 15.08 З 5 23 км н/о +21.1 +11.7 55 +23 +23 комфорт 1013.1 1007.0
14 15.08 СЗ 4 35 км н/о +21.4 +11.8 54 +23 +23 комфорт 1013.6 1007.5
15 15.08 З 4 29 км н/о +22.3 +11.4 50 +24 +24 комфорт 1014.0 1008.0
16 15.08 З 4 40 км н/о +22.1 +11.4 51 +24 +24 комфорт 1014.2 1008.1
17 15.08 З 3 30 км н/о +21.0 +11.1 53 +24 +24 комфорт 1014.9 1008.8
18 15.08 З 4 40 км н/о +19.8 +10.6 55 +21 +21 комфорт 1015.7 1009.5 +22.4
19 15.08 З 2 45 км н/о +19.0 +11.2 61 +20 +20 1016.4 1010.2
20 15.08 З 1 45 км н/о +16.7 +11.0 69 +18 +18 1016.8 1010.5
21 15.08 З 2 40 км н/о +15.2 +11.1 77 +15 +15 1017.4 1011.2
22 15.08 З 1 30 км н/о +14.4 +11.0 80 +15 +15 1017.9 1011.6
23 15.08 З 1 30 км н/о +13.7 +10.8 83 +14 +14 1018.0 1011.7
00 16.08 Ю 1 35 км н/о +12.1 +9.6 85 +13 +13 1017.9 1011.6
01 16.08 штиль 0 21 км н/о +11.3 +10.2 93 +11 +11 1017.8 1011.5
02 16.08 СЗ 1 17 км н/о +10.9 +10.3 96 +11 +11 1017.4 1011.1
03 16.08 В 1 20 км н/о +10.1 +9.6 97 +9 +9 1017.2 1010.9
04 16.08 СВ 1 18 км н/о +9.9 +9.6 98 +9 +9 1016.8 1010.5
05 16.08 В 1 14 км н/о +10.7 +10.6 99 +10 +10 1016.4 1010.1
06 16.08 Ю 1 14 км н/о +11.6 +11.6 100 +12 +12 1016.2 1009.9 +9.6
07 16.08 ЮЗ 2 14 км н/о +15.2 +15.2 100 +15 +15 1015.9 1009.7
08 16.08 ЮЗ 4 25 км н/о +16.9 +14.6 86 +17 +17 1015.3 1009.1
09 16.08 ЮЗ 5 24 км н/о +17.3 +14.8 85 +17 +17 1014.8 1008.7
10 16.08 ЮЗ 4 10 км слаб. ливневой дождь н/о +16.6 +15.1 91 +16 +16 1014.4 1008.2
11 16.08 ЮЗ 6 17 км в посл. час дождь н/о +17.2 +14.8 86 +16 +16 1014.1 1007.9
12 16.08 ЮЗ 5 30 км в посл. час дождь н/о +17.5 +13.4 77 +17 +17 1013.6 1007.4 0.2
13 16.08 ЮЗ 5 30 км в посл. час дождь н/о +17.6 +13.1 75 +17 +17 1012.9 1006.7
14 16.08 ЮЗ 4 28 км н/о +17.5 +13.4 77 +17 +17 1012.4 1006.2
15 16.08 ЮЗ 5 26 км н/о +17.5 +13.3 76 +17 +17 1011.6 1005.5
16 16.08 ЮЗ 4 30 км в посл. час дождь н/о +17.4 +13.6 78 +17 +17 1010.9 1004.8
17 16.08 ЮЗ 4 5000 м сильн. дождь н/о +15.6 +14.2 91 +15 +15 1010.2 1004.0
18 16.08 ЮЗ 4 10 км дождь н/о +16.0 +15.2 95 +15 +15 1009.5 1003.4 +17.7 2
19 16.08 ЮЗ 4 14 км дождь н/о +16.3 +15.5 95 +16 +16 1008.6 1002.4
20 16.08 ЮЗ 5 17 км дождь н/о +16.8 +15.6 93 +16 +16 1008.2 1002.1
21 16.08 ЮЗ 6 4300 м ливневой дождь н/о +16.5 +15.6 94 +15 +15 1007.4 1001.3
22 16.08 ЮЗ 6 3500 м дождь н/о +16.2 +15.8 97 +15 +15 1006.6 1000.5
23 16.08 ЮЗ 6 4700 м слаб. дождь н/о +16.3 +16.0 98 +15 +15 1006.1 999.9
00 17.08 ЮЗ 7 10 км в посл. час дождь н/о +16.8 +16.5 98 +16 +16 1005.6 999.4 6
01 17.08 ЮЗ 6 3400 м морось н/о +17.0 +16.8 99 +16 +16 1005.1 999.0
02 17.08 ЮЗ 5 6000 м слаб. морось н/о +17.2 +17.0 99 +16 +16 1004.8 998.7
03 17.08 ЮЗ 4 5000 м морось н/о +17.3 +17.2 99 +17 +17 1004.8 998.7
04 17.08 ЮЗ 4 6000 м слаб. морось н/о +17.3 +17.2 99 +17 +17 1004.8 998.7
05 17.08 З 3 7000 м морось н/о +17.2 +17.1 99 +17 +17 1004.9 998.8
06 17.08 З 3 14 км в посл. час дождь н/о +17.1 +16.8 98 +17 +17 1005.2 999.1 +16.0 8
07 17.08 З 2 15 км н/о +17.2 +16.6 96 +17 +17 1005.7 999.6
08 17.08 З 3 27 км н/о +18.1 +14.8 81 +18 +18 1005.6 999.5
09 17.08 З 4 25 км н/о +17.7 +13.7 77 +18 +18 1006.0 999.8
10 17.08 З 4 13 км н/о +18.5 +14.8 79 +19 +19 1006.4 1000.3
11 17.08 З 3 15 км н/о +18.3 +14.2 77 +19 +19 1006.2 1000.1
12 17.08 З 3 14 км н/о +18.1 +14.6 80 +18 +18 1006.2 1000.1 0.2
13 17.08 ЮЗ 4 14 км н/о +18.1 +14.6 80 +18 +18 1006.7 1000.6
14 17.08 З 5 13 км н/о +19.0 +14.3 74 +20 +20 1006.4 1000.3
15 17.08 З 5 12 км н/о +19.6 +15.2 76 +21 +21 комфорт 1006.7 1000.6
16 17.08 З 4 16 км н/о +18.4 +13.8 75 +19 +19 1006.5 1000.4
17 17.08 ЮЗ 3 10 км н/о +17.6 +14.6 83 +18 +18 1006.5 1000.3
18 17.08 ЮЗ 4 11 км н/о +17.2 +14.3 83 +17 +17 1006.6 1000.4 +20.0 0.2
19 17.08 ЮЗ 3 10 км н/о +16.7 +14.7 88 +16 +16 1006.6 1000.5
20 17.08 ЮЗ 3 10 км н/о +16.5 +14.5 88 +16 +16 1006.9 1000.7
21 17.08 З 3 11 км н/о +16.3 +14.4 89 +16 +16 1007.0 1000.8
22 17.08 ЮЗ 3 12 км н/о +16.0 +13.9 87 +16 +16 1006.4 1000.2
23 17.08 ЮЗ 2 12 км н/о +15.8 +13.9 88 +16 +16 1006.2 1000.0
00 18.08 ЮЗ 2 12 км слаб. морось с дождем н/о +15.5 +13.9 90 +16 +16 1005.6 999.5 0.0
01 18.08 ЮЗ 2 10 км слаб. ливневой дождь н/о +15.3 +14.1 93 +15 +15 1005.5 999.3
02 18.08 ЮЗ 1 9000 м слаб. дождь н/о +14.8 +13.8 94 +16 +16 1004.9 998.7
03 18.08 Ю 2 8000 м дождь н/о +14.9 +14.3 96 +15 +15 1004.4 998.3
04 18.08 З 1 7000 м дождь н/о +14.6 +14.1 97 +15 +15 1004.1 998.0
05 18.08 З 1 6000 м слаб. дождь н/о +14.1 +13.5 96 +15 +15 1003.9 997.7
06 18.08 С 1 12 км в посл. час дождь н/о +14.1 +13.7 97 +15 +15 1003.6 997.4 +14.0 3
07 18.08 ЮЗ 1 11 км н/о +14.5 +14.2 98 +15 +15 1003.9 997.7
08 18.08 ЮЗ 2 20 км н/о +16.4 +15.3 93 +16 +16 1004.0 997.9
09 18.08 ЮЗ 3 18 км н/о +17.5 +15.1 86 +17 +17 1004.5 998.4
10 18.08 ЮЗ 4 35 км н/о +17.4 +14.2 81 +17 +17 1005.0 998.9
11 18.08 З 4 29 км в посл. час дождь н/о +16.7 +14.5 87 +16 +16 1005.2 999.1
12 18.08 З 4 35 км н/о +18.6 +12.7 69 +19 +19 1006.0 999.9 0.2
13 18.08 З 5 40 км н/о +18.0 +12.4 70 +18 +18 1006.7 1000.6
14 18.08 З 6 30 км н/о +19.0 +12.2 65 +20 +20 1007.1 1001.0
15 18.08 ЮЗ 6 25 км н/о +18.7 +11.9 65 +19 +19 1007.8 1001.7
16 18.08 З 6-11
{13}
18 км н/о +18.1 +12.4 69 +18 +18 1008.1 1002.0
17 18.08 З 6 16 км н/о +17.8 +12.1 69 +17 +17 1008.4 1002.3
18 18.08 З 6 16 км н/о +17.2 +12.2 72 +16 +16 1008.8 1002.6 +19.4 0.2
19 18.08 З 4 14 км н/о +16.4 +12.1 76 +16 +16 1009.0 1002.9
20 18.08 З 3 13 км н/о +15.7 +12.2 80 +15 +15 1009.7 1003.5
21 18.08 З 4 13 км н/о +15.8 +12.4 80 +15 +15 1010.1 1003.9
22 18.08 З 4 11 км н/о +15.8 +12.6 81 +15 +15 1010.6 1004.4
23 18.08 З 3 13 км н/о +15.3 +11.9 80 +15 +15 1011.1 1004.9
00 19.08 З 3 13 км н/о +14.6 +11.9 84 +14 +14 1011.4 1005.1
01 19.08 З 1 16 км н/о +13.5 +11.5 88 +14 +14 1011.9 1005.6
02 19.08 З 1 12 км н/о +14.1 +12.0 87 +14 +14 1012.0 1005.8
03 19.08 ЮЗ 2 13 км н/о +13.3 +11.6 89 +13 +13 1012.1 1005.8
04 19.08 З 1 15 км н/о +13.8 +11.5 86 +14 +14 1012.2 1006.0
05 19.08 З 2 14 км н/о +13.6 +11.6 88 +13 +13 1012.8 1006.6
06 19.08 ЮЗ 2 9000 м ливневой дождь н/о +13.6 +11.7 88 +13 +13 1013.3 1007.1 +13.1 0.0
07 19.08 ЮЗ 2 15 км в посл. час дождь н/о +14.7 +12.6 87 +15 +15 1013.7 1007.4
08 19.08 З 4 16 км н/о +16.6 +12.2 75 +16 +16 1013.8 1007.6
09 19.08 З 4 19 км н/о +17.9 +12.8 72 +18 +18 1014.3 1008.2
10 19.08 З 4 15 км в посл. час дождь н/о +17.5 +13.6 78 +17 +17 1014.7 1008.5
11 19.08 ЮЗ 6 17 км в посл. час дождь н/о +18.2 +14.0 76 +18 +18 1015.1 1008.9
12 19.08 ЮЗ 6 17 км н/о +17.9 +12.6 71 +17 +17 1015.4 1009.3 0.0
13 19.08 ЮЗ 7 19 км н/о +18.6 +12.6 68 +19 +19 1015.9 1009.7
14 19.08 ЮЗ 6 20 км н/о +18.8 +12.3 66 +19 +19 1016.3 1010.1
15 19.08 З 6 16 км н/о +18.2 +11.7 66 +18 +18 1016.6 1010.4
16 19.08 З 5-10
{13}
16 км н/о +18.8 +12.1 65 +19 +19 1016.8 1010.6
17 19.08 З 5 18 км н/о +17.6 +11.9 69 +17 +17 1017.3 1011.1
18 19.08 З 5 14 км н/о +17.0 +12.0 72 +16 +16 1017.8 1011.6 +19.3 0.0
19 19.08 З 2 20 км в посл. час дождь н/о +15.4 +11.5 78 +15 +15 1018.0 1011.7
20 19.08 ЮЗ 2 12 км н/о +15.3 +12.8 85 +15 +15 1018.6 1012.3
21 19.08 З 3 13 км н/о +15.0 +12.6 86 +14 +14 1019.1 1012.9
22 19.08 З 1 10 км н/о +13.9 +12.1 89 +14 +14 1019.5 1013.3
23 19.08 З 1 12 км н/о +13.3 +12.0 92 +13 +13 1019.9 1013.6
00 20.08 З 2 10 км н/о +13.2 +12.3 94 +13 +13 1020.0 1013.7 0.0
01 20.08 З 2 9000 м дымка н/о +12.8 +12.1 96 +12 +12 1020.0 1013.7
02 20.08 З 1 10 км н/о +11.4 +10.4 94 +12 +12 1020.1 1013.7
03 20.08 З 1 13 км н/о +11.3 +10.7 96 +11 +11 1020.4 1014.0
04 20.08 З 2 21 км н/о +10.7 +9.9 95 +10 +10 1020.5 1014.2
05 20.08 З 1 17 км н/о +10.2 +9.3 94 +10 +10 1020.9 1014.6
06 20.08 З 1 21 км н/о +10.6 +9.9 95 +10 +10 1021.4 1015.0 +10.1 0.0
07 20.08 З 2 20 км н/о +12.5 +11.4 93 +11 +11 1022.2 1015.9
08 20.08 З 2 20 км н/о +14.9 +12.3 84 +15 +15 1022.7 1016.4
09 20.08 СЗ 3 35 км н/о +16.5 +10.4 67 +16 +16 1023.0 1016.7
10 20.08 З 4 23 км н/о +17.3 +8.4 56 +17 +17 1023.2 1016.9
11 20.08 З 4 24 км н/о +18.4 +9.0 54 +19 +19 1023.2 1017.0
12 20.08 З 4 27 км н/о +18.6 +7.8 49 +19 +19 1023.5 1017.3
13 20.08 З 4 11 км дым н/о +18.8 +8.1 50 +19 +19 1023.6 1017.4
14 20.08 З 5 25 км н/о +18.6 +10.2 58 +19 +19 1023.9 1017.7
15 20.08 З 4 26 км н/о +19.0 +11.1 60 +20 +20 1024.3 1018.1
16 20.08 ЮЗ 5 28 км н/о +19.1 +11.5 61 +20 +20 1024.4 1018.2
17 20.08 ЮЗ 3 18 км н/о +18.8 +12.4 66 +20 +20 1024.9 1018.7
18 20.08 ЮЗ 4 21 км н/о +17.4 +12.0 71 +17 +17 1025.3 1019.1 +20.0
19 20.08 З 2 20 км н/о +15.8 +12.1 79 +16 +16 1025.8 1019.6
20 20.08 ЮЗ 2 15 км н/о +14.7 +12.4 86 +15 +15 1026.6 1020.3
21 20.08 З 1 13 км н/о +13.7 +12.2 91 +14 +14 1026.9 1020.6
22 20.08 З 1 14 км н/о +13.3 +12.4 94 +13 +13 1027.2 1020.8
23 20.08 СЗ 1 14 км н/о +13.0 +11.7 92 +13 +13 1027.2 1020.9
00 21.08 штиль 0 13 км н/о +10.6 +9.3 92 +10 +10 1027.5 1021.1
01 21.08 С 1 12 км н/о +10.3 +9.8 97 +10 +10 1027.5 1021.1
02 21.08 СВ 1 12 км н/о +9.7 +9.1 96 +9 +9 1027.5 1021.1
03 21.08 С 1 15 км н/о +9.6 +9.2 97 +10 +10 1027.4 1021.0
04 21.08 В 1 19 км н/о +8.2 +7.5 95 +7 +7 1027.6 1021.1
05 21.08 СВ 1 20 км н/о +8.7 +8.5 99 +8 +8 1027.9 1021.4
06 21.08 Ю 1 28 км н/о +9.1 +8.8 98 +9 +9 1028.2 1021.7 +8.2
07 21.08 З 1 21 км н/о +11.8 +11.8 100 +12 +12 1028.4 1022.0
08 21.08 ЮЗ 1 40 км н/о +15.3 +13.0 86 +16 +16 1028.4 1022.1

 

Местоположение метеостанции Херстмонсо (Великобритания): широта 50.90 долгота 0.32 высота над уровнем моря 52 м.

В архиве по умолчанию представлена погода в Херстмонсо за последнюю неделю. Архивные данные за месяц целиком и за предыдущие месяцы, начиная с января 2011 года, Вы можете получить, выбрав интересующий диапазон дат из раскрывающегося списка и нажав кнопку "Ввод!".


*Определитесь, кто Вы:
робот инопланетянин человек

Внимание! Время в таблицах - всемирное. Для получения местного времени необходимо прибавить поправку, которая равна 0 ч.

Смотрите также архив погоды в соседних городах и на ближайших метеорологических станциях:

Погода в Аэропорту Брайтон-Сити (Великобритания) (43 км)
Погода на Аэродроме Кенли (Великобритания) (53 км)
Погода в Чарлвуде (Великобритания) (61 км)
Погода в Грейвзенде (Великобритания) (63 км)
Погода в Лондоне (Великобритания) (73 км)
Погода в Заливе Лангдон (Великобритания) (76 км)
Погода в Шоберинессе (Великобритания) (81 км)
Погода в Лондоне (Великобритания) (84 км)
Погода в Фарнборо (Великобритания) (87 км)
Погода на Острове Торвер (Великобритания) (88 км)

Пояснения к столбцам:

Ветер - указаны скорость ветра в м/с - средняя за 10 мин, порывы в срок и между сроками (в фигурных скобках) и направление, откуда дует ветер: С - северный, СВ - северо-восточный, В - восточный, ЮВ - юго-восточный, Ю - южный, ЮЗ - юго-западный, З - западный, СЗ - северо-западный.
Видимость - горизонтальная дальность видимости в метрах или километрах. При видимости от 1 до 10 км при отсутствии осадков обычно наблюдается дымка, при ухудшении видимости до 1 км и менее - туман. В сухую погоду видимость может ухудшаться дымом, пылью или мглою.
Явления - указаны атмосферные явления, наблюдавшиеся в срок или в последний час перед сроком; фигурными скобками обозначены явления, наблюдавшиеся между сроками (за 1-3 часа до срока); квадратными скобками обозначены град или гололедные отложения с указанием их диаметра в мм.
Облачность - указаны через наклонную черту общая и нижняя облачность в баллах и высота нижней границы облаков в метрах; квадратными скобками обозначены формы облаков: Ci - перистые, Cs - перисто-слоистые, Cc - перисто-кучевые, Ac - высококучевые, As - высокослоистые, Sc - слоисто-кучевые, Ns - слоисто-дождевые, Cu - кучевые, Cb - кучево-дождевые. Подробнее классификацию облаков см. в Атласе облаков (PDF).
T - Температура воздуха - температура, измеренная на высоте 2 м над землей.
Td - Температура точки росы - температура, при понижении до которой содержащийся в воздухе водяной пар достигнет насыщения.
f - Относительная влажность воздуха - влажноcть воздуха, измеренная на высоте 2 м над землей.
Te - Эффективная температура - температура, которую ощущает одетый по сезону человек в тени. Характеристика душности погоды. При расчете учитывается влияние влажности воздуха и скорости ветра на теплоощущения человека.
Tes - Эффективная температура на солнце - температура, которую ощущает человек, с поправкой на солнечный нагрев. Характеристика знойности погоды. Зависит от высоты солнца над горизонтом, облачности и скорости ветра. Ночью, в пасмурную погоду, а также при ветре 12 м/с и более поправка равна нулю.
P - Атмосферное давление - приведенное к уровню моря атмосферное давление.
Po - Атмосферное давление - измеренное на уровне метеостанции атмосферное давление.
Tmin - Минимальная температура - минимум температуры воздуха на высоте 2 м над землей.
Tmax - Максимальная температура - максимум температуры воздуха на высоте 2 м над землей.
R - Количество осадков - Количество выпавших осадков за период времени, мм. При наведении курсора мыши на число - период времени, за который выпало указанное количество осадков.
R24 - Количество осадков - Количество выпавших осадков за 24 часа, мм.
S - Снежный покров - Высота снежного покрова, см. При наведении курсора мыши на число - состояние снежного покрова и степень покрытия местности в баллах.